Location: Chilton Park
(37.7711°N, 100.0276°W)
Time: 18:07:01
(UTC+00:00)

Cosmos 1898 Rocket - Pass Details

Date: 12 July 2022
Orbit: 753 x 783 km, 74.0° (Epoch: 18 August)

Event Time Altitude Azimuth Distance (km) Brightness Sun altitude
Rises 05:34:11 0° 356° (N) 3,213 7.9 -27.9°
Reaches altitude 10° 05:37:10 10° 13° (NNE) 2,285 6.7 -28.1°
Maximum altitude 05:40:58 20° 61° (ENE) 1,690 5.3 -28.4°
Enters shadow 05:41:24 20° 68° (ENE) 1,699 5.3 -28.4°
